Location: Beaurecueil
(43.5122°N, 5.5450°E)
Time: 14:07:17
(UTC+00:00)

Cosmos 2195 Rocket - Pass Details

Date: 18 September 2020
Orbit: 948 x 994 km, 82.9° (Epoch: 30 October)

Event Time Altitude Azimuth Distance (km) Brightness Sun altitude
Rises 19:53:09 0° 353° (N) 3,699 8.0 -23.7°
Reaches altitude 10° 19:55:42 10° 356° (N) 2,740 7.2 -24.1°
Maximum altitude 20:01:58 72° 81° (E) 1,018 4.4 -25.1°
Enters shadow 20:03:08 58° 140° (SE) 1,121 4.4 -25.3°
